�N����,����,�g�[���i���ԁj���x,�g�[�����x,��g�[���i���ցj���x,����
 2003/06/01, 0:00,26.9,63,24.4,21.1
 2003/06/01, 0:15,26.7,62,24.3,21.1
 2003/06/01, 0:30,26.5,63,24.3,21.1
 2003/06/01, 0:45,26.5,63.5,24.2,21.1
 2003/06/01, 1:00,26.4,64,24.1,21.2
 2003/06/01, 1:15,26.3,64,24,21.2
 2003/06/01, 1:30,26.2,64,24,21.3
 2003/06/01, 1:45,26.2,64,23.9,21.3
 2003/06/01, 2:00,26.1,64,23.9,21.3
 2003/06/01, 2:15,26.1,64,23.8,21.4
 2003/06/01, 2:30,26,64,23.8,21.4
 2003/06/01, 2:45,26,64,23.7,21.4
 2003/06/01, 3:00,25.9,64,23.7,21.5
 2003/06/01, 3:15,25.8,64,23.6,21.5
 2003/06/01, 3:30,25.7,64,23.6,21.5
 2003/06/01, 3:45,25.7,64,23.5,21.6
 2003/06/01, 4:00,25.6,64,23.4,21.6
 2003/06/01, 4:15,25.5,64,23.4,21.6
 2003/06/01, 4:30,25.5,64,23.4,21.7
 2003/06/01, 4:45,25.5,64,23.3,21.7
 2003/06/01, 5:00,25.4,64,23.3,21.7
 2003/06/01, 5:15,25.4,64,23.2,21.7
 2003/06/01, 5:30,25.2,65,23.2,21.8
 2003/06/01, 5:45,25.2,64.5,23.1,21.8
 2003/06/01, 6:00,25.1,64,23.1,21.8
 2003/06/01, 6:15,25.1,64,23,21.9
 2003/06/01, 6:30,25.1,65,23,21.9
 2003/06/01, 6:45,25,65,23,21.9
 2003/06/01, 7:00,25,65,23,21.9
 2003/06/01, 7:15,25,65,22.9,22
 2003/06/01, 7:30,25,65,22.9,22
 2003/06/01, 7:45,25,65,22.8,22
 2003/06/01, 8:00,25,65,22.8,22
 2003/06/01, 8:15,25,65,22.8,22
 2003/06/01, 8:30,25.1,64,22.8,22
 2003/06/01, 8:45,25,64.5,22.9,22
 2003/06/01, 9:00,24.8,61,22.8,22.1
 2003/06/01, 9:15,25.1,62.5,22.9,22.1
 2003/06/01, 9:30,25.2,62,22.9,22.1
 2003/06/01, 9:45,25.3,61.5,22.8,22.1
 2003/06/01,10:00,24.9,59,22.7,22.1
 2003/06/01,10:15,24.4,59,22.5,22.1
 2003/06/01,10:30,24.1,60,22.5,22.2
 2003/06/01,10:45,23.9,60,22.5,21.4
 2003/06/01,11:00,23.9,59,22.4,20.9
 2003/06/01,11:15,23.8,59,22.4,20.9
 2003/06/01,11:30,23.3,62,22.4,20.9
 2003/06/01,11:45,23.1,64,22.2,21
 2003/06/01,12:00,22.4,65,22.2,21
 2003/06/01,12:15,22.1,64.5,22.2,21
 2003/06/01,12:30,22.1,64,22.2,21
 2003/06/01,12:45,22.4,63.5,22.2,21
 2003/06/01,13:00,22.6,63,22.3,21.5
 2003/06/01,13:15,22.8,62,22.2,21.5
 2003/06/01,13:30,23.1,62,22.3,21.5
 2003/06/01,13:45,23.2,60,22.4,21.5
 2003/06/01,14:00,23.1,59,22.5,21.5
 2003/06/01,14:15,23,59,22.5,21.6
 2003/06/01,14:30,23.1,59,22.4,21.5
 2003/06/01,14:45,22.8,59,22.4,21.5
 2003/06/01,15:00,22.8,59,22.3,21.6
 2003/06/01,15:15,22.5,59.5,22.1,21.6
 2003/06/01,15:30,22.2,61,22.1,21.6
 2003/06/01,15:45,22,61,22.1,21.6
 2003/06/01,16:00,22.2,62,22,21.6
 2003/06/01,16:15,22,61.5,22,21.6
 2003/06/01,16:30,22,61,22,21.6
 2003/06/01,16:45,21.8,62,21.9,21.7
 2003/06/01,17:00,21.6,63,21.8,21.7
 2003/06/01,17:15,21.6,62,21.8,21.7
 2003/06/01,17:30,21.6,63,21.7,21.7
 2003/06/01,17:45,21.7,62,21.6,21.7
 2003/06/01,18:00,22,62,21.5,21.7
 2003/06/01,18:15,21.8,61,21.3,21.7
 2003/06/01,18:30,21.6,62,21.4,21.7
 2003/06/01,18:45,22,62,21.3,21.7
 2003/06/01,19:00,22.2,61,21.3,21.7
 2003/06/01,19:15,22.6,61.5,21.3,21.7
 2003/06/01,19:30,22.8,61,21.3,21.7
 2003/06/01,19:45,22.9,60,21.3,21.7
 2003/06/01,20:00,22.9,60,21.3,21.7
 2003/06/01,20:15,22.9,60,21.2,21.7
 2003/06/01,20:30,23.1,61,21.3,21.7
 2003/06/01,20:45,23,60,21.3,21.7
 2003/06/01,21:00,23,62,21.4,21.7
 2003/06/01,21:15,23.1,62,21.3,21.7
 2003/06/01,21:30,23.1,62,21.3,21.7
 2003/06/01,21:45,23.1,62,21.3,21.7
 2003/06/01,22:00,23.2,62,21.2,21.6
 2003/06/01,22:15,23.2,62,21.2,21.6
 2003/06/01,22:30,23.3,62,21.2,21.6
 2003/06/01,22:45,23.2,62,21.1,21.6
 2003/06/01,23:00,23.2,62,21.1,21.5
 2003/06/01,23:15,23,62,21,21.5
 2003/06/01,23:30,23,62,20.9,21.5
 2003/06/01,23:45,23,62,20.9,21.5
 2003/06/02, 0:00,22.8,62,20.8,21.5
 2003/06/02, 0:15,22.8,62,20.7,21.5
 2003/06/02, 0:30,22.7,62,20.6,21.4
 2003/06/02, 0:45,22.6,62,20.5,21.5
 2003/06/02, 1:00,22.5,62,20.5,21.5
 2003/06/02, 1:15,22.4,62,20.5,21.4
 2003/06/02, 1:30,22.3,62,20.4,21.4
 2003/06/02, 1:45,22.2,62,20.3,21.4
 2003/06/02, 2:00,22.2,62,20.2,21.4
 2003/06/02, 2:15,22,62,20.1,21.4
 2003/06/02, 2:30,22,62,20.1,21.4
 2003/06/02, 2:45,21.9,62,20,21.4
 2003/06/02, 3:00,21.8,62,20,21.3
 2003/06/02, 3:15,21.7,62,19.9,21.3
 2003/06/02, 3:30,21.6,62,19.8,21.3
 2003/06/02, 3:45,21.5,62,19.8,21.2
 2003/06/02, 4:00,21.5,62,19.7,21.2
 2003/06/02, 4:15,21.4,62,19.6,21.2
 2003/06/02, 4:30,21.3,62,19.6,21.2
 2003/06/02, 4:45,21.2,62,19.5,21.2
 2003/06/02, 5:00,21.2,62,19.5,21.2
 2003/06/02, 5:15,21.1,62,19.5,21.1
 2003/06/02, 5:30,21,62,19.3,21.1
 2003/06/02, 5:45,21.1,65,19.3,21.1
 2003/06/02, 6:00,21.1,66,19.3,21.1
 2003/06/02, 6:15,21,65,19.2,21
 2003/06/02, 6:30,21,64,19.2,21
 2003/06/02, 6:45,21.1,65.5,19.2,21
 2003/06/02, 7:00,21.3,65,19.2,20.9
 2003/06/02, 7:15,21.3,65.5,19.2,20.9
 2003/06/02, 7:30,21.3,64,19.2,20.9
 2003/06/02, 7:45,21.4,63.5,19.2,20.9
 2003/06/02, 8:00,21.5,63,19.2,20.8
 2003/06/02, 8:15,21.7,62.5,19.2,20.8
 2003/06/02, 8:30,21.8,62,19.2,20.8
 2003/06/02, 8:45,22,61,19.4,20.7
 2003/06/02, 9:00,22,60,19.4,20.8
 2003/06/02, 9:15,22,60,19.5,20.7
 2003/06/02, 9:30,22.1,60,19.6,20.7
 2003/06/02, 9:45,22.2,59,19.7,20.7
 2003/06/02,10:00,22.3,59,19.8,20.7
 2003/06/02,10:15,22.5,59,20,20.6
 2003/06/02,10:30,22.6,59,20.1,20.6
 2003/06/02,10:45,22.8,58,20.2,20.6
 2003/06/02,11:00,22.8,57,20.3,20.6
 2003/06/02,11:15,23,57,20.5,20.6
 2003/06/02,11:30,23.1,57,20.6,20.5
 2003/06/02,11:45,23.2,56,20.6,20.5
 2003/06/02,12:00,23.4,56,20.8,20.6
 2003/06/02,12:15,23.5,55,20.9,20.5
 2003/06/02,12:30,23.6,55,20.9,20.5
 2003/06/02,12:45,23.7,55,21,20.5
 2003/06/02,13:00,23.9,54,21.1,20.5
 2003/06/02,13:15,24.1,54,21.2,20.5
 2003/06/02,13:30,24.3,54,21.3,20.5
 2003/06/02,13:45,24.5,54,21.4,20.5
 2003/06/02,14:00,24.5,54,21.5,20.5
 2003/06/02,14:15,24.6,53.5,21.6,20.5
 2003/06/02,14:30,24.8,53,21.7,20.5
 2003/06/02,14:45,24.9,52.5,21.8,20.5
 2003/06/02,15:00,25,52,21.9,20.5
 2003/06/02,15:15,25,52,22,20.6
 2003/06/02,15:30,25.1,51,22,20.6
 2003/06/02,15:45,25.2,51.5,22.1,20.5
 2003/06/02,16:00,25.2,51,22.2,20.6
 2003/06/02,16:15,25.3,51,22.2,20.6
 2003/06/02,16:30,25.3,50,22.2,20.6
 2003/06/02,16:45,25.2,51,22.3,20.6
 2003/06/02,17:00,25.3,50,22.3,20.6
 2003/06/02,17:15,25.2,49.5,22.4,20.6
 2003/06/02,17:30,25.2,49,22.4,20.6
 2003/06/02,17:45,25.2,48.5,22.5,20.7
 2003/06/02,18:00,25.2,50,22.4,20.7
 2003/06/02,18:15,25.2,50,22.5,20.7
 2003/06/02,18:30,25.2,50,22.5,20.7
 2003/06/02,18:45,25,49,22.4,20.7
 2003/06/02,19:00,25,47,22.4,20.7
 2003/06/02,19:15,24.9,49,22.5,20.7
 2003/06/02,19:30,24.9,49,22.4,20.7
 2003/06/02,19:45,24.9,49,22.3,20.8
 2003/06/02,20:00,24.7,50,22.3,20.8
 2003/06/02,20:15,24.6,50,22.2,20.8
 2003/06/02,20:30,24.5,51,22.2,20.8
 2003/06/02,20:45,24.5,50.5,22.1,20.8
 2003/06/02,21:00,24.5,51,22.2,20.9
 2003/06/02,21:15,24.4,51,22,20.8
 2003/06/02,21:30,24.3,51,22,20.9
 2003/06/02,21:45,24.2,51,21.9,20.9
 2003/06/02,22:00,24.2,52,21.8,20.9
 2003/06/02,22:15,24.2,52.5,21.9,20.9
 2003/06/02,22:30,24.2,51,21.9,20.9
 2003/06/02,22:45,24.4,54,21.9,21
 2003/06/02,23:00,24.4,54,21.9,21
 2003/06/02,23:15,24.3,53,21.9,21
 2003/06/02,23:30,24.2,54,21.9,21
 2003/06/02,23:45,24.4,54.5,21.8,21
 2003/06/03, 0:00,24.5,55,21.7,21
 2003/06/03, 0:15,24.2,53.5,21.7,21
 2003/06/03, 0:30,24.1,53,21.6,21.1
 2003/06/03, 0:45,24,52.5,21.5,21.1
 2003/06/03, 1:00,23.9,53,21.5,21.1
 2003/06/03, 1:15,23.8,53,21.5,21.1
 2003/06/03, 1:30,23.7,53,21.4,21.1
 2003/06/03, 1:45,23.6,53,21.4,21.1
 2003/06/03, 2:00,23.5,53,21.2,21.1
 2003/06/03, 2:15,23.3,53,21.1,21.1
 2003/06/03, 2:30,23.2,53,21.1,21.2
 2003/06/03, 2:45,23,53,21,21.1
 2003/06/03, 3:00,22.8,53,21,21.1
 2003/06/03, 3:15,22.8,53.5,20.9,21.2
 2003/06/03, 3:30,22.6,54,20.8,21.2
 2003/06/03, 3:45,22.5,54,20.8,21.2
 2003/06/03, 4:00,22.3,54,20.8,21.2
 2003/06/03, 4:15,22.2,54,20.6,21.2
 2003/06/03, 4:30,22.2,54,20.6,21.2
 2003/06/03, 4:45,22,54.5,20.5,21.2
 2003/06/03, 5:00,22,55,20.4,21.2
 2003/06/03, 5:15,21.9,55,20.4,21.2
 2003/06/03, 5:30,21.8,55,20.3,21.2
 2003/06/03, 5:45,21.6,55,20.2,21.2
 2003/06/03, 6:00,21.6,55,20.2,21.2
 2003/06/03, 6:15,21.6,55,20.1,21.1
 2003/06/03, 6:30,21.7,56,20.1,21.1
 2003/06/03, 6:45,22.1,59.5,20.1,20.9
 2003/06/03, 7:00,22.1,58,20.1,20.9
 2003/06/03, 7:15,22.4,58,20.1,20.9
 2003/06/03, 7:30,22.4,65,20.1,20.9
 2003/06/03, 7:45,22.4,64.5,20.1,20.9
 2003/06/03, 8:00,22.3,66,20.1,20.9
 2003/06/03, 8:15,22.5,65.5,20.2,20.8
 2003/06/03, 8:30,22.7,64,20.2,20.9
 2003/06/03, 8:45,22.8,65.5,20.3,20.8
 2003/06/03, 9:00,22.8,65,20.4,20.8
 2003/06/03, 9:15,22.9,66,20.5,20.5
 2003/06/03, 9:30,22.9,68,20.5,20.5
 2003/06/03, 9:45,23,67,20.6,20.5
 2003/06/03,10:00,23.2,66,20.7,20.5
 2003/06/03,10:15,23.3,66,20.9,20.5
 2003/06/03,10:30,23.4,64,21,20.5
 2003/06/03,10:45,23.6,63,21.1,20.5
 2003/06/03,11:00,23.7,63,21.2,20.5
 2003/06/03,11:15,23.9,61,21.4,20.5
 2003/06/03,11:30,24,60,21.5,20.6
 2003/06/03,11:45,24.2,59,21.6,20.6
 2003/06/03,12:00,24.3,58,21.7,20.6
 2003/06/03,12:15,24.5,58,21.8,20.5
 2003/06/03,12:30,24.6,58,21.9,20.6
 2003/06/03,12:45,24.8,58,22,20.5
 2003/06/03,13:00,25,57,22.1,20.6
 2003/06/03,13:15,25.2,56.5,22.1,20.6
 2003/06/03,13:30,25.5,56,22.2,20.6
 2003/06/03,13:45,25.6,55,22.4,20.6
 2003/06/03,14:00,25.7,55,22.5,20.6
 2003/06/03,14:15,25.9,53.5,22.5,20.6
 2003/06/03,14:30,26,53,22.7,20.6
 2003/06/03,14:45,26,52.5,22.8,20.6
 2003/06/03,15:00,26.2,53,22.8,20.6
 2003/06/03,15:15,26.2,52.5,22.9,20.7
 2003/06/03,15:30,26.4,53,23,20.7
 2003/06/03,15:45,26.4,51.5,23,20.7
 2003/06/03,16:00,26.5,51,23.1,20.7
 2003/06/03,16:15,26.5,51.5,23.1,20.7
 2003/06/03,16:30,26.6,51,23.2,20.8
 2003/06/03,16:45,26.6,51,23.2,20.8
 2003/06/03,17:00,26.6,52,23.3,20.8
 2003/06/03,17:15,26.6,52,23.3,20.8
 2003/06/03,17:30,26.6,53,23.3,20.8
 2003/06/03,17:45,26.5,53,23.3,20.9
 2003/06/03,18:00,26.5,53,23.3,20.9
 2003/06/03,18:15,26.5,53,23.4,20.9
 2003/06/03,18:30,26.4,53,23.3,20.9
 2003/06/03,18:45,26.4,53,23.3,20.9
 2003/06/03,19:00,26.2,53,23.3,21
 2003/06/03,19:15,26.1,53,23.2,21
 2003/06/03,19:30,26.1,53,23.2,21
 2003/06/03,19:45,26,53,23.1,21
 2003/06/03,20:00,26,53,23.1,21
 2003/06/03,20:15,26,53,23,21.1
 2003/06/03,20:30,25.9,54,23.1,21.1
 2003/06/03,20:45,25.8,54,23,21.1
 2003/06/03,21:00,25.8,54,23,21.1
 2003/06/03,21:15,25.6,51.5,22.9,21.1
 2003/06/03,21:30,25.4,45,22.9,21.2
 2003/06/03,21:45,25,42,23,21.2
 2003/06/03,22:00,24.8,41,22.9,21.2
 2003/06/03,22:15,24.8,43,22.9,21.2
 2003/06/03,22:30,25.2,46,22.9,21.3
 2003/06/03,22:45,25.1,47,22.8,21.2
 2003/06/03,23:00,25.3,49,22.8,21.3
 2003/06/03,23:15,25.3,49,22.8,21.3
 2003/06/03,23:30,25.4,49,22.7,21.3
 2003/06/03,23:45,25.1,49,22.6,21.4
 2003/06/04, 0:00,25,48,22.6,21.4
 2003/06/04, 0:15,25,47.5,22.5,21.4
 2003/06/04, 0:30,24.8,47,22.5,21.4
 2003/06/04, 0:45,24.6,47,22.5,21.4
 2003/06/04, 1:00,24.6,47,22.4,21.4
 2003/06/04, 1:15,24.5,47,22.4,21.5
 2003/06/04, 1:30,24.3,47,22.3,21.5
 2003/06/04, 1:45,24.3,47,22.2,21.5
 2003/06/04, 2:00,24.2,47,22.2,21.5
 2003/06/04, 2:15,24.1,48,22.1,21.6
 2003/06/04, 2:30,24,48,22.1,21.6
 2003/06/04, 2:45,23.9,47,22,21.6
 2003/06/04, 3:00,23.8,48,22,21.6
 2003/06/04, 3:15,23.7,48.5,21.9,21.6
 2003/06/04, 3:30,23.6,49,21.9,21.6
 2003/06/04, 3:45,23.5,49.5,21.8,21.6
 2003/06/04, 4:00,23.4,50,21.7,21.6
 2003/06/04, 4:15,23.4,50,21.7,21.6
 2003/06/04, 4:30,23.3,50,21.6,21.7
 2003/06/04, 4:45,23.1,51,21.5,21.7
 2003/06/04, 5:00,23.1,50,21.5,21.7
 2003/06/04, 5:15,23,50.5,21.5,21.7
 2003/06/04, 5:30,22.9,51,21.4,21.7
 2003/06/04, 5:45,22.9,51.5,21.4,21.7
 2003/06/04, 6:00,22.8,51,21.3,21.7
 2003/06/04, 6:15,22.8,51.5,21.3,21.7
 2003/06/04, 6:30,22.7,49,21.3,21.7
 2003/06/04, 6:45,23,53,21.3,21.7
 2003/06/04, 7:00,23.3,54,21.3,21.7
 2003/06/04, 7:15,23.1,54,21.3,21.7
 2003/06/04, 7:30,22.8,54,21.3,21.7
 2003/06/04, 7:45,22.6,53,21.2,21.7
 2003/06/04, 8:00,22.7,53,21.2,21.7
 2003/06/04, 8:15,22.8,53,21.2,21.7
 2003/06/04, 8:30,22.6,54,21.3,21.7
 2003/06/04, 8:45,22.8,52.5,21.3,21.7
 2003/06/04, 9:00,22.9,54,21.4,21.7
 2003/06/04, 9:15,23,54,21.4,21.7
 2003/06/04, 9:30,23.1,54,21.5,21.7
 2003/06/04, 9:45,23.2,54,21.5,21.7
 2003/06/04,10:00,23.2,55,21.6,21.7
 2003/06/04,10:15,23.4,55,21.6,21.7
 2003/06/04,10:30,23.4,56,21.7,21.7
 2003/06/04,10:45,23.4,56,21.8,21.7
 2003/06/04,11:00,23.4,56,21.8,21.7
 2003/06/04,11:15,23.5,56,21.9,21.7
 2003/06/04,11:30,23.5,56,21.9,21.7
 2003/06/04,11:45,23.5,56,21.9,21.7
 2003/06/04,12:00,23.7,56,21.9,21.7
 2003/06/04,12:15,23.8,56,22,21.7
 2003/06/04,12:30,23.8,56,22,21.7
 2003/06/04,12:45,23.9,56,22.1,21.7
 2003/06/04,13:00,23.9,56,22.1,21.7
 2003/06/04,13:15,23.9,56,22.1,21.7
 2003/06/04,13:30,23.9,56,22.2,21.7
 2003/06/04,13:45,23.9,56.5,22.2,21.7
 2003/06/04,14:00,23.9,56,22.2,21.7
 2003/06/04,14:15,23.9,56,22.2,21.8
 2003/06/04,14:30,23.9,56,22.2,21.7
 2003/06/04,14:45,24,55.5,22.2,21.8
 2003/06/04,15:00,24,55,22.2,21.8
 2003/06/04,15:15,24,55.5,22.2,21.8
 2003/06/04,15:30,24,55,22.2,21.8
 2003/06/04,15:45,24.1,54,22.2,21.8
 2003/06/04,16:00,24.1,53,22.3,21.8
 2003/06/04,16:15,24,53,22.3,21.8
 2003/06/04,16:30,24,52,22.3,21.8
 2003/06/04,16:45,24,53,22.3,21.8
 2003/06/04,17:00,24,53,22.2,21.8
 2003/06/04,17:15,24,53,22.3,21.8
 2003/06/04,17:30,24,53,22.2,21.8
 2003/06/04,17:45,24,53,22.2,21.8
 2003/06/04,18:00,24,53,22.2,21.8
 2003/06/04,18:15,24,53,22.2,21.9
 2003/06/04,18:30,23.9,53,22.2,21.8
 2003/06/04,18:45,23.9,53,22.1,21.9
 2003/06/04,19:00,23.8,54,22.1,21.9
 2003/06/04,19:15,23.8,54,22.1,21.9
 2003/06/04,19:30,23.7,54,22,21.8
 2003/06/04,19:45,23.7,54,22,21.9
 2003/06/04,20:00,23.6,54,21.9,21.9
 2003/06/04,20:15,23.6,54,21.9,21.9
 2003/06/04,20:30,23.6,54,21.9,21.9
 2003/06/04,20:45,23.5,55,21.9,21.9
 2003/06/04,21:00,23.6,55,21.8,21.9
 2003/06/04,21:15,23.6,55,21.8,21.9
 2003/06/04,21:30,23.7,56,21.8,21.9
 2003/06/04,21:45,23.7,56,21.8,21.9
 2003/06/04,22:00,23.7,55,21.7,21.9
 2003/06/04,22:15,23.7,55.5,21.7,21.9
 2003/06/04,22:30,23.7,56,21.7,21.9
 2003/06/04,22:45,23.7,56,21.6,21.9
 2003/06/04,23:00,23.7,56,21.7,21.9
 2003/06/04,23:15,23.6,56,21.6,21.9
 2003/06/04,23:30,23.6,56,21.5,22
 2003/06/04,23:45,23.5,56,21.5,22
 2003/06/05, 0:00,23.5,56,21.5,22
 2003/06/05, 0:15,23.5,57,21.5,22
 2003/06/05, 0:30,23.7,58,21.4,22
 2003/06/05, 0:45,23.8,58,21.4,21.9
 2003/06/05, 1:00,23.8,57,21.4,21.9
 2003/06/05, 1:15,23.8,57,21.3,21.9
 2003/06/05, 1:30,23.7,57,21.3,21.9
 2003/06/05, 1:45,23.6,57,21.2,21.9
 2003/06/05, 2:00,23.6,58,21.2,21.9
 2003/06/05, 2:15,23.5,58,21.1,21.9
 2003/06/05, 2:30,23.5,58,21.1,21.9
 2003/06/05, 2:45,23.4,58,21,21.9
 2003/06/05, 3:00,23.3,58,21,21.9
 2003/06/05, 3:15,23.2,58,20.9,21.9
 2003/06/05, 3:30,23.1,58,20.9,21.9
 2003/06/05, 3:45,23.1,58,20.9,21.9
 2003/06/05, 4:00,23.1,58,20.8,21.9
 2003/06/05, 4:15,23,58,20.8,21.9
 2003/06/05, 4:30,22.8,59,20.7,21.9
 2003/06/05, 4:45,22.8,59,20.6,21.9
 2003/06/05, 5:00,22.7,59,20.6,21.8
 2003/06/05, 5:15,22.7,59,20.5,21.9
 2003/06/05, 5:30,22.6,59,20.5,21.8
 2003/06/05, 5:45,22.5,59,20.5,21.8
 2003/06/05, 6:00,22.4,59,20.4,21.8
 2003/06/05, 6:15,22.4,59,20.4,21.8
 2003/06/05, 6:30,22.4,59,20.4,21.8
 2003/06/05, 6:45,22.6,60.5,20.4,21.8
 2003/06/05, 7:00,22.9,63,20.4,21.8
 2003/06/05, 7:15,22.8,60.5,20.5,21.7
 2003/06/05, 7:30,22.9,61,20.5,21.7
 2003/06/05, 7:45,22.9,64.5,20.5,21.7
 2003/06/05, 8:00,23,64,20.6,21.7
 2003/06/05, 8:15,23,65,20.6,21.7
 2003/06/05, 8:30,23.1,65,20.6,21.7
 2003/06/05, 8:45,23,65.5,20.7,21.7
 2003/06/05, 9:00,23.1,66,20.8,21.7
 2003/06/05, 9:15,23.1,64.5,20.9,21.7
 2003/06/05, 9:30,23.3,64,21,21.7
 2003/06/05, 9:45,23.4,62.5,21.1,21.7
 2003/06/05,10:00,23.4,62,21.2,21.7
 2003/06/05,10:15,23.6,61,21.4,21.7
 2003/06/05,10:30,23.7,61,21.5,21.7
 2003/06/05,10:45,23.9,59.5,21.6,21.7
 2003/06/05,11:00,23.9,58,21.8,21.7
 2003/06/05,11:15,24.2,58,22,21.7
 2003/06/05,11:30,24.3,57,22,21.7
 2003/06/05,11:45,24.5,57,22.2,21.7
 2003/06/05,12:00,24.7,57,22.3,21.7
 2003/06/05,12:15,24.7,55.5,22.5,21.8
 2003/06/05,12:30,24.9,56,22.5,21.8
 2003/06/05,12:45,25,55.5,22.6,21.8
 2003/06/05,13:00,25.3,55,22.7,21.8
 2003/06/05,13:15,25.5,55,22.8,21.8
 2003/06/05,13:30,25.6,55,22.9,21.8
 2003/06/05,13:45,25.8,54.5,23,21.9
 2003/06/05,14:00,25.9,54,23.1,21.9
 2003/06/05,14:15,26,54,23.2,21.9
 2003/06/05,14:30,26.2,54,23.3,21.9
 2003/06/05,14:45,26.2,54,23.4,21.9
 2003/06/05,15:00,26.4,54,23.5,21.9
 2003/06/05,15:15,26.5,54,23.5,22
 2003/06/05,15:30,26.5,54,23.6,22
 2003/06/05,15:45,26.6,54,23.7,22
 2003/06/05,16:00,26.6,53,23.7,22
 2003/06/05,16:15,26.7,53.5,23.8,22
 2003/06/05,16:30,26.6,53,23.8,22.1
 2003/06/05,16:45,26.6,53,23.8,22.1
 2003/06/05,17:00,26.7,53,23.9,22.1
 2003/06/05,17:15,26.8,54,24,22.1
 2003/06/05,17:30,26.7,53,23.9,22.2
 2003/06/05,17:45,26.8,53.5,24,22.2
 2003/06/05,18:00,26.7,54,24,22.2
 2003/06/05,18:15,26.8,54,24,22.2
 2003/06/05,18:30,26.8,54,24,22.3
 2003/06/05,18:45,26.8,54,24,22.3
 2003/06/05,19:00,26.7,54,24,22.3
 2003/06/05,19:15,26.6,55,24,22.4
 2003/06/05,19:30,26.6,55,24,22.4
 2003/06/05,19:45,26.5,55,24,22.4
 2003/06/05,20:00,26.4,55,24,22.4
 2003/06/05,20:15,26.4,55,24,22.5
 2003/06/05,20:30,26.4,55,23.9,22.5
 2003/06/05,20:45,26.3,55,23.9,22.5
 2003/06/05,21:00,26.1,51,23.8,22.6
 2003/06/05,21:15,25.8,42.5,23.8,20.8
 2003/06/05,21:30,25.4,40,23.8,20.8
 2003/06/05,21:45,25.3,41.5,23.8,20.8
 2003/06/05,22:00,25.4,41,23.7,20.9
 2003/06/05,22:15,25.3,41,23.7,20.9
 2003/06/05,22:30,25,42,23.6,21
 2003/06/05,22:45,25.4,44.5,23.6,21
 2003/06/05,23:00,25.4,45,23.6,21
 2003/06/05,23:15,25.4,45.5,23.5,21.1
 2003/06/05,23:30,25.2,45,23.5,21.1
 2003/06/05,23:45,25.3,46,23.4,21.1
 2003/06/06, 0:00,25.4,47,23.4,21.2
 2003/06/06, 0:15,25,45,23.4,21.2
 2003/06/06, 0:30,25,43,23.2,21.3
 2003/06/06, 0:45,25,44,23.1,21.3
 2003/06/06, 1:00,24.9,44,23.1,21.4
 2003/06/06, 1:15,24.9,44,23,21.4
 2003/06/06, 1:30,24.8,44,22.9,21.4
 2003/06/06, 1:45,24.6,44,22.8,21.5
 2003/06/06, 2:00,24.6,44,22.7,21.4
 2003/06/06, 2:15,24.5,44.5,22.6,21.5
 2003/06/06, 2:30,24.3,45,22.5,21.5
 2003/06/06, 2:45,24.2,44.5,22.5,21.5
 2003/06/06, 3:00,24.2,45,22.4,21.5
 2003/06/06, 3:15,24,45.5,22.2,21.6
 2003/06/06, 3:30,23.8,47,22.2,21.6
 2003/06/06, 3:45,23.8,48.5,22.1,21.6
 2003/06/06, 4:00,23.7,49,22,21.7
 2003/06/06, 4:15,23.5,49.5,21.9,21.7
 2003/06/06, 4:30,23.5,50,21.8,21.7
 2003/06/06, 4:45,23.5,50,21.8,21.8
 2003/06/06, 5:00,23.4,49,21.7,21.7
 2003/06/06, 5:15,23.4,49.5,21.6,21.8
 2003/06/06, 5:30,23.2,50,21.5,21.8
 2003/06/06, 5:45,23.1,50,21.5,21.8
 2003/06/06, 6:00,23.1,50,21.4,21.8
 2003/06/06, 6:15,23,51,21.4,21.8
 2003/06/06, 6:30,23.1,50,21.3,21.8
 2003/06/06, 6:45,23,51.5,21.3,21.8
 2003/06/06, 7:00,23.1,54,21.2,21.8
 2003/06/06, 7:15,23,52,21.3,21.8
 2003/06/06, 7:30,22.5,49,21.3,21.8
 2003/06/06, 7:45,23,51,21.4,21.8
 2003/06/06, 8:00,23.2,49,21.4,21.8
 2003/06/06, 8:15,23.4,49,21.5,21.8
 2003/06/06, 8:30,23.5,49,21.5,21.8
 2003/06/06, 8:45,23.6,49.5,21.5,21.8
 2003/06/06, 9:00,23.8,49,21.6,21.8
 2003/06/06, 9:15,24,50,21.6,21.8
 2003/06/06, 9:30,24.1,50,21.8,21.8
 2003/06/06, 9:45,24.2,50,21.9,21.8
 2003/06/06,10:00,24.4,50,22,21.8
 2003/06/06,10:15,24.5,50,22.1,21.8
 2003/06/06,10:30,24.7,49,22.2,21.8
 2003/06/06,10:45,24.9,49,22.4,21.8
 2003/06/06,11:00,25.2,49,22.5,21.8
 2003/06/06,11:15,25.3,48,22.6,21.8
 2003/06/06,11:30,25.5,48,22.7,21.8
 2003/06/06,11:45,25.5,48,22.9,21.8
 2003/06/06,12:00,25.7,48,23,21.8
 2003/06/06,12:15,25.9,48,23.1,21.8
 2003/06/06,12:30,26.1,48,23.2,21.8
 2003/06/06,12:45,26.4,47.5,23.4,21.8
 2003/06/06,13:00,26.6,47,23.4,21.9
 2003/06/06,13:15,26.8,47,23.6,21.9
 2003/06/06,13:30,27,47,23.7,21.8
 2003/06/06,13:45,27.1,47,23.9,21.8
 2003/06/06,14:00,27.4,47,23.9,21.9
 2003/06/06,14:15,27.5,47,24,21.9
 2003/06/06,14:30,27.6,47,24.2,21.9
 2003/06/06,14:45,27.7,47,24.3,21.9
 2003/06/06,15:00,27.8,46,24.4,21.9
 2003/06/06,15:15,28,47,24.5,21.9
 2003/06/06,15:30,28,47,24.5,21.9
 2003/06/06,15:45,28,47,24.5,22
 2003/06/06,16:00,28,47,24.7,22
 2003/06/06,16:15,28,46.5,24.8,22
 2003/06/06,16:30,28,46,24.8,22
 2003/06/06,16:45,27.9,45,24.9,22
 2003/06/06,17:00,27.8,45,24.9,22
 2003/06/06,17:15,27.8,45,24.9,22.1
 2003/06/06,17:30,27.6,44,25,22.1
 2003/06/06,17:45,27.6,45,24.9,22.1
 2003/06/06,18:00,27.6,45,25,22.1
 2003/06/06,18:15,27.5,46,24.9,22.1
 2003/06/06,18:30,27.5,46,24.9,22.2
 2003/06/06,18:45,27.5,47.5,24.9,22.2
 2003/06/06,19:00,27.4,48,24.9,22.2
 2003/06/06,19:15,27.3,49.5,24.9,22.3
 2003/06/06,19:30,27.3,51,24.9,22.3
 2003/06/06,19:45,27.2,52,24.9,22.3
 2003/06/06,20:00,27.2,52,24.8,22.3
 2003/06/06,20:15,27.2,52,24.8,22.4
 2003/06/06,20:30,27.2,52,24.8,22.3
 2003/06/06,20:45,27.1,52,24.8,22.4
 2003/06/06,21:00,27.1,52,24.7,22.4
 2003/06/06,21:15,27.1,52,24.7,22.5
 2003/06/06,21:30,27,52,24.7,22.5
 2003/06/06,21:45,27.1,52,24.6,22.5
 2003/06/06,22:00,27.1,52,24.6,22.5
 2003/06/06,22:15,26.8,51.5,24.6,22.5
 2003/06/06,22:30,26.4,52,24.6,22.6
 2003/06/06,22:45,26.3,52,24.6,22.2
 2003/06/06,23:00,26.4,52,24.6,22.3
 2003/06/06,23:15,26.2,52,24.6,22.3
 2003/06/06,23:30,26.1,52,24.6,22.3
 2003/06/06,23:45,26.1,54,24.5,22.4
 2003/06/07, 0:00,26,54,24.5,22.4
 2003/06/07, 0:15,26.1,55,24.5,22.4
 2003/06/07, 0:30,26.1,55,24.4,22.4
 2003/06/07, 0:45,26,55,24.3,22.5
 2003/06/07, 1:00,26,55,24.3,22.5
 2003/06/07, 1:15,26,55,24.2,22.5
 2003/06/07, 1:30,25.9,55,24.2,22.5
 2003/06/07, 1:45,25.9,55.5,24.1,22.5
 2003/06/07, 2:00,25.8,55,24,22.6
 2003/06/07, 2:15,25.8,55.5,24,22.6
 2003/06/07, 2:30,25.8,56,24,22.6
 2003/06/07, 2:45,25.8,56,24,22.6
 2003/06/07, 3:00,25.8,56,23.9,22.7
 2003/06/07, 3:15,25.7,56,23.9,22.7
 2003/06/07, 3:30,25.6,56,23.8,22.7
 2003/06/07, 3:45,25.5,57,23.8,22.7
 2003/06/07, 4:00,25.5,57,23.7,22.7
 2003/06/07, 4:15,25.5,57,23.7,22.8
 2003/06/07, 4:30,25.4,57,23.7,22.7
 2003/06/07, 4:45,25.3,57,23.6,22.8
 2003/06/07, 5:00,25.4,57,23.5,22.8
 2003/06/07, 5:15,25.3,57,23.5,22.8
 2003/06/07, 5:30,25.2,57,23.4,22.8
 2003/06/07, 5:45,25,57,23.1,22.8
 2003/06/07, 6:00,25,57,23.1,22.9
 2003/06/07, 6:15,24.9,57,23,22.9
 2003/06/07, 6:30,24.8,57,22.9,22.9
 2003/06/07, 6:45,24.7,58,22.9,22.9
 2003/06/07, 7:00,24.8,58,22.9,22.9
 2003/06/07, 7:15,24.7,58,22.9,23
 2003/06/07, 7:30,24.8,58,22.9,22.9
 2003/06/07, 7:45,24.7,58,22.9,23
 2003/06/07, 8:00,24.9,57,22.9,23
 2003/06/07, 8:15,25.1,57,23,23
 2003/06/07, 8:30,25.1,57,23,23
 2003/06/07, 8:45,25.2,58,23,23
 2003/06/07, 9:00,25.5,57,23.1,23
 2003/06/07, 9:15,25.5,57,23.1,23
 2003/06/07, 9:30,25.7,56,23.2,23
 2003/06/07, 9:45,25.7,56,23.3,23
 2003/06/07,10:00,25.8,56,23.4,23
 2003/06/07,10:15,25.9,56,23.5,23
 2003/06/07,10:30,26,55,23.7,23
 2003/06/07,10:45,26.1,55,23.8,23.1
 2003/06/07,11:00,26.3,55,23.9,23.1
 2003/06/07,11:15,26.5,55,24,23
 2003/06/07,11:30,26.5,55,24.2,23.1
 2003/06/07,11:45,26.7,54,24.4,23.1
 2003/06/07,12:00,26.8,54,24.4,23.1
 2003/06/07,12:15,27,53.5,24.5,23.1
 2003/06/07,12:30,27.2,53,24.6,23.1
 2003/06/07,12:45,27.4,52.5,24.7,23.1
 2003/06/07,13:00,27.4,52,24.7,23.1
 2003/06/07,13:15,27.5,52.5,24.8,23.1
 2003/06/07,13:30,27.7,52,24.9,23.2
 2003/06/07,13:45,27.6,52,24.9,23.2
 2003/06/07,14:00,27.8,52,25,23.2
 2003/06/07,14:15,27.8,51.5,25,23.2
 2003/06/07,14:30,27.6,49,25.1,23.2
 2003/06/07,14:45,27.6,49.5,25.1,23.2
 2003/06/07,15:00,27.4,50,25,23.2
 2003/06/07,15:15,27.3,51,24.8,23.2
 2003/06/07,15:30,27.2,52,24.7,23.3
 2003/06/07,15:45,27.2,52,24.7,23.3
 2003/06/07,16:00,27.2,52,24.7,23.3
 2003/06/07,16:15,27.1,52,24.6,23.3
 2003/06/07,16:30,27,52,24.6,23.3
 2003/06/07,16:45,27,52,24.5,23.3
 2003/06/07,17:00,27.1,52,24.5,23.3
 2003/06/07,17:15,27,52.5,24.5,23.2
 2003/06/07,17:30,27,53,24.5,22.7
 2003/06/07,17:45,26.9,53,24.4,22.7
 2003/06/07,18:00,26.9,52,24.4,22.8
 2003/06/07,18:15,26.8,53,24.3,22.8
 2003/06/07,18:30,26.8,53,24.3,22.8
 2003/06/07,18:45,26.8,53,24.2,22.8
 2003/06/07,19:00,26.8,52,24.2,22.8
 2003/06/07,19:15,26.4,53,24,22.9